1484348400.58,63422,5.81,71166.5,-10.79,-12.15,-12.21,0,*69
1484348401.82,63423,5.81,71166.5,-10.77,-12.15,-12.29,0,*6E
1484348403.06,63424,5.88,71170.0,-10.77,-12.15,-12.29,0,*69
1484348404.3,63425,5.81,71164.0,-10.77,-12.07,-12.29,0,*6B
1484348405.54,63426,5.81,71164.5,-10.77,-12.07,-12.29,0,*68
1484348406.78,63427,5.81,71166.5,-10.77,-12.15,-12.21,0,*62
1484348408.05,63428,5.81,71166.8,-10.79,-12.07,-12.29,0,*68
1484348409.32,63429,5.81,71166.5,-10.79,-12.07,-12.29,0,*69
1484348410.59,63430,5.81,71166.5,-10.81,-12.11,-12.35,0,*6C
1484348411.86,63431,5.81,71164.8,-10.79,-12.15,-12.21,0,*6B
1484348413.13,63432,5.81,71168.3,-10.79,-12.15,-12.21,0,*68
1484348414.37,63433,5.81,71164.3,-10.81,-12.11,-12.25,0,*6E
1484348415.61,63434,5.81,71164.8,-10.79,-12.03,-12.21,0,*69
1484348416.89,63435,5.81,71166.3,-10.81,-12.11,-12.35,0,*69
1484348418.13,63436,5.81,71164.8,-10.77,-12.07,-12.21,0,*61
1484348419.4,63437,5.81,71164.5,-10.79,-12.07,-12.29,0,*66
1484348420.67,63438,5.81,71166.5,-10.79,-12.07,-12.21,0,*61
1484348421.91,63439,5.81,71166.8,-10.79,-12.03,-12.29,0,*6C
1484348423.15,63440,5.81,71166.0,-10.79,-12.03,-12.21,0,*6A
1484348424.42,63441,5.88,71170.5,-10.79,-12.07,-12.29,0,*67
1484348425.66,63442,5.81,71164.3,-10.81,-12.11,-12.25,0,*68
1484348426.93,63443,5.81,71166.5,-10.79,-12.07,-12.21,0,*6D
1484348428.22,63444,5.81,71166.3,-10.79,-12.07,-12.15,0,*6D
1484348429.49,63445,5.81,71160.8,-10.79,-12.07,-12.29,0,*63
1484348430.76,63446,5.88,71170.8,-10.79,-12.07,-12.29,0,*60
1484348432.03,63447,5.81,71162.3,-10.79,-12.15,-12.29,0,*62
1484348433.27,63448,5.88,71166.5,-10.77,-12.07,-12.21,0,*68
1484348434.51,63449,5.81,71166.0,-10.77,-12.07,-12.21,0,*69
1484348435.75,63450,5.81,71168.0,-10.77,-12.15,-12.29,0,*6A
1484348436.99,63451,5.81,71166.3,-10.77,-12.07,-12.21,0,*60
1484348438.2,63452,5.88,71166.5,-10.77,-12.03,-12.29,0,*6F
1484348439.47,63453,5.81,71166.0,-10.79,-12.07,-12.29,0,*64
1484348440.74,63454,5.81,71166.3,-10.79,-12.07,-12.21,0,*6B
1484348441.98,63455,5.81,71164.8,-10.77,-12.07,-12.21,0,*64
1484348443.22,63456,5.81,71164.3,-10.77,-12.07,-12.21,0,*67
1484348444.48,63457,5.81,71164.3,-10.77,-12.07,-12.15,0,*61
1484348445.7,63458,5.88,71168.3,-10.77,-12.03,-12.21,0,*6D
1484348446.93,63459,5.88,71166.0,-10.77,-12.15,-12.29,0,*63
1484348448.17,63460,5.81,71166.5,-10.77,-12.15,-12.29,0,*69
1484348449.41,63461,5.81,71162.8,-10.77,-12.07,-12.21,0,*63
1484348450.65,63462,5.88,71166.0,-10.77,-12.15,-12.29,0,*6B
1484348451.92,63463,5.81,71164.8,-10.79,-12.07,-12.29,0,*67
1484348453.16,63464,5.81,71164.5,-10.77,-12.07,-12.29,0,*6E
1484348454.4,63465,5.81,71162.3,-10.77,-12.07,-12.29,0,*6F
1484348455.64,63466,5.81,71162.8,-10.77,-12.07,-12.21,0,*64
1484348456.88,63467,5.81,71162.8,-10.77,-12.07,-12.21,0,*65
1484348458.1,63468,5.81,71164.8,-10.77,-12.03,-12.21,0,*6E
1484348459.31,63469,5.81,71160.5,-10.77,-12.03,-12.21,0,*6F
1484348460.52,63470,5.81,71162.3,-10.77,-12.03,-12.21,0,*67
1484348461.73,63471,5.81,71164.5,-10.77,-12.03,-12.21,0,*66
1484348462.97,63472,5.81,71166.8,-10.77,-12.15,-12.21,0,*62
1484348464.18,63473,5.81,71160.5,-10.77,-12.03,-12.29,0,*6C
1484348465.4,63474,5.81,71166.8,-10.77,-12.03,-12.21,0,*63
1484348466.64,63475,5.81,71164.0,-10.77,-12.15,-12.21,0,*65
1484348467.88,63476,5.81,71162.5,-10.77,-12.07,-12.29,0,*6D
1484348469.12,63477,5.81,71164.8,-10.77,-12.07,-12.21,0,*64
1484348470.36,63478,5.81,71162.5,-10.77,-12.07,-12.21,0,*6B
1484348471.65,63479,5.81,71162.8,-10.75,-11.89,-12.15,0,*6A
1484348472.94,63480,5.88,71164.5,-10.75,-11.97,-12.15,0,*63
1484348474.15,63481,5.81,71162.5,-10.77,-12.03,-12.29,0,*61
1484348475.39,63482,5.81,71166.3,-10.77,-12.15,-12.29,0,*65
1484348476.6,63483,5.81,71164.5,-10.77,-12.03,-12.21,0,*6B
1484348477.84,63484,5.88,71164.3,-10.77,-12.07,-12.21,0,*68
1484348479.08,63485,5.88,71164.0,-10.77,-12.07,-12.21,0,*69
1484348480.32,63486,5.88,71164.5,-10.77,-12.07,-12.29,0,*62
1484348481.53,63487,5.88,71164.3,-10.77,-12.03,-12.29,0,*67
1484348482.77,63488,5.81,71166.5,-10.77,-12.07,-12.21,0,*64
1484348484.01,63489,5.81,71162.8,-10.77,-12.07,-12.21,0,*65
1484348485.25,63490,5.81,71164.8,-10.77,-12.15,-12.21,0,*6E
1484348486.5,63491,5.81,71166.5,-10.77,-12.07,-12.21,0,*6C
1484348487.73,63492,5.88,71166.3,-10.77,-12.07,-12.29,0,*67
1484348489.03,63493,5.81,71162.8,-10.75,-12.11,-12.15,0,*6C
1484348490.27,63494,5.81,71162.3,-10.77,-12.07,-12.29,0,*61
1484348491.51,63495,5.81,71166.8,-10.77,-12.15,-12.29,0,*63
1484348492.74,63496,5.81,71164.5,-10.75,-12.03,-12.25,0,*69
1484348494.01,63497,5.88,71166.3,-10.75,-12.03,-12.15,0,*6B
1484348495.25,63498,5.81,71166.5,-10.77,-12.07,-12.21,0,*65
1484348496.46,63499,5.88,71166.8,-10.77,-12.03,-12.21,0,*60
1484348497.7,63500,5.81,71166.5,-10.75,-12.03,-12.25,0,*67
1484348498.94,63501,5.81,71160.3,-10.75,-12.03,-12.25,0,*66
1484348500.2,63502,5.88,71166.8,-10.75,-12.03,-12.15,0,*66
1484348501.49,63503,5.81,71162.8,-10.75,-12.11,-12.15,0,*64
1484348502.76,63504,5.81,71164.3,-10.75,-12.11,-12.29,0,*6C
1484348504.04,63505,5.81,71162.8,-10.75,-12.11,-12.29,0,*6D
1484348505.3,63506,5.81,71162.8,-10.75,-12.11,-12.25,0,*62
1484348506.57,63507,5.88,71164.0,-10.77,-12.15,-12.35,0,*64
1484348507.84,63508,5.88,71166.3,-10.77,-12.07,-12.35,0,*68
1484348509.1,63509,5.81,71160.5,-10.77,-12.15,-12.35,0,*6A
1484348510.37,63510,5.81,71164.3,-10.75,-12.11,-12.25,0,*65
1484348511.61,63511,5.81,71162.0,-10.77,-12.15,-12.29,0,*6E
1484348512.9,63512,5.81,71162.5,-10.75,-12.11,-12.15,0,*64
1484348514.17,63513,5.81,71164.8,-10.75,-12.11,-12.25,0,*66
1484348515.41,63514,5.81,71160.8,-10.77,-12.07,-12.21,0,*60
1484348516.68,63515,5.88,71166.3,-10.75,-12.11,-12.29,0,*6C
1484348517.95,63516,5.81,71160.5,-10.75,-12.11,-12.29,0,*6F
1484348519.19,63517,5.81,71162.3,-10.75,-12.03,-12.39,0,*6C
1484348520.46,63518,5.88,71164.5,-10.77,-12.15,-12.35,0,*6A
1484348521.7,63519,5.88,71166.0,-10.77,-12.15,-12.29,0,*66
1484348522.94,63520,5.81,71162.8,-10.75,-12.03,-12.29,0,*69
1484348524.21,63521,5.88,71164.8,-10.75,-12.11,-12.29,0,*6B
1484348525.5,63522,5.81,71160.0,-10.75,-12.11,-12.15,0,*67
1484348526.76,63523,5.81,71160.0,-10.75,-12.03,-12.15,0,*65
1484348528.03,63524,5.88,71166.5,-10.75,-12.11,-12.25,0,*62
1484348529.3,63525,5.88,71164.3,-10.75,-12.11,-12.29,0,*6F
1484348530.57,63526,5.81,71160.0,-10.75,-12.11,-12.39,0,*6D
1484348531.84,63527,5.81,71162.3,-10.75,-12.11,-12.29,0,*6D
1484348533.11,63528,5.81,71162.5,-10.77,-12.07,-12.35,0,*6A
1484348534.35,63529,5.81,71164.5,-10.75,-12.03,-12.25,0,*6C
1484348535.59,63530,5.81,71160.0,-10.73,-12.15,-12.25,0,*65
1484348536.84,63531,5.88,71166.0,-10.73,-12.11,-12.25,0,*60
1484348538.08,63532,5.88,71164.0,-10.75,-12.03,-12.29,0,*6A
1484348539.35,63533,5.81,71162.5,-10.75,-12.11,-12.29,0,*68
1484348540.62,63534,5.88,71162.5,-10.75,-12.11,-12.25,0,*63
1484348541.86,63535,5.88,71162.8,-10.75,-12.03,-12.25,0,*61
1484348543.1,63536,5.88,71164.0,-10.73,-12.11,-12.25,0,*67
1484348544.36,63537,5.81,71160.5,-10.75,-12.03,-12.15,0,*60
1484348545.61,63538,5.88,71162.0,-10.73,-12.11,-12.29,0,*65
1484348546.86,63539,5.81,71160.0,-10.73,-12.11,-12.25,0,*68
1484348548.09,63540,5.88,71164.3,-10.77,-12.15,-12.29,0,*6A
1484348549.34,63541,5.81,71160.0,-10.75,-12.03,-12.25,0,*62
1484348550.58,63542,5.81,71162.8,-10.75,-12.03,-12.25,0,*61
1484348551.84,63543,5.81,71162.0,-10.75,-12.11,-12.25,0,*63
1484348553.11,63544,5.81,71162.5,-10.77,-12.07,-12.35,0,*60
1484348554.35,63545,5.88,71162.3,-10.75,-12.03,-12.29,0,*6A
1484348555.59,63546,5.88,71162.0,-10.75,-12.03,-12.29,0,*69
1484348556.86,63547,5.88,71164.8,-10.75,-12.11,-12.39,0,*6A
1484348558.11,63548,5.81,71160.5,-10.75,-12.03,-12.29,0,*67
1484348559.38,63549,5.88,71164.5,-10.75,-12.11,-12.29,0,*65
1484348560.65,63550,5.81,71162.5,-10.75,-12.15,-12.29,0,*69
1484348561.87,63551,5.81,71160.0,-10.73,-12.03,-12.29,0,*69
1484348563.14,63552,5.81,71160.8,-10.75,-12.11,-12.29,0,*6F
1484348564.35,63553,5.81,71160.8,-10.73,-12.03,-12.25,0,*67
1484348565.6,63554,5.81,71162.3,-10.73,-12.11,-12.25,0,*63
1484348566.84,63555,5.88,71166.3,-10.73,-12.11,-12.25,0,*62
1484348568.09,63556,5.88,71166.3,-10.73,-12.11,-12.25,0,*61
1484348569.35,63557,5.81,71162.5,-10.71,-11.97,-12.21,0,*6B
1484348570.57,63558,5.88,71164.5,-10.73,-12.03,-12.25,0,*6C
1484348571.84,63559,5.88,71164.5,-10.75,-12.11,-12.25,0,*68
1484348573.1,63560,5.81,71162.5,-10.75,-12.11,-12.25,0,*62
1484348574.35,63561,5.88,71162.3,-10.75,-12.03,-12.29,0,*6C
1484348575.61,63562,5.88,71164.3,-10.73,-12.11,-12.15,0,*65
1484348576.86,63563,5.88,71162.0,-10.73,-12.11,-12.25,0,*67
1484348578.1,63564,5.81,71162.5,-10.75,-12.03,-12.25,0,*65
1484348579.34,63565,5.88,71164.5,-10.75,-12.03,-12.25,0,*64
1484348580.61,63566,5.88,71162.0,-10.75,-12.11,-12.25,0,*64
1484348581.85,63567,5.81,71160.3,-10.73,-12.11,-12.25,0,*63
1484348583.1,63568,5.88,71164.3,-10.73,-12.11,-12.29,0,*60
1484348584.37,63569,5.81,71158.3,-10.71,-11.97,-12.21,0,*66
1484348585.58,63570,5.81,71158.8,-10.73,-12.03,-12.25,0,*66
1484348586.83,63571,5.81,71156.8,-10.73,-12.11,-12.25,0,*64
1484348588.07,63572,5.81,71160.0,-10.73,-12.15,-12.25,0,*63
1484348589.32,63573,5.88,71162.8,-10.73,-12.11,-12.29,0,*6A
1484348590.56,63574,5.81,71160.0,-10.73,-12.15,-12.39,0,*68
1484348591.79,63575,5.81,71162.0,-10.73,-12.25,-12.29,0,*6B
1484348593.01,63576,5.81,71162.8,-10.73,-12.25,-12.29,0,*68
1484348594.26,63577,5.81,71162.0,-10.75,-12.25,-12.29,0,*6F
1484348595.55,63578,5.88,71162.0,-10.71,-12.07,-12.11,0,*6F
1484348596.77,63579,5.88,71164.0,-10.73,-12.03,-12.25,0,*6F
1484348598.01,63580,5.81,71162.8,-10.73,-12.11,-12.25,0,*6A
1484348599.24,63581,5.88,71162.5,-10.73,-12.25,-12.29,0,*60
1484348600.49,63582,5.88,71160.3,-10.73,-12.15,-12.29,0,*60
1484348601.71,63583,5.81,71160.8,-10.73,-12.25,-12.29,0,*62
1484348602.98,63584,5.88,71162.0,-10.75,-12.15,-12.29,0,*60
1484348604.25,63585,5.88,71160.3,-10.75,-12.15,-12.39,0,*60
1484348605.5,63586,5.88,71162.0,-10.75,-12.25,-12.39,0,*60
1484348606.77,63587,5.88,71162.0,-10.75,-12.15,-12.39,0,*62
1484348608.03,63588,5.81,71160.8,-10.75,-12.15,-12.29,0,*6C
1484348609.28,63589,5.81,71162.0,-10.75,-12.25,-12.39,0,*6F
1484348610.5,63590,5.88,71162.3,-10.73,-12.25,-12.39,0,*61
1484348611.75,63591,5.88,71164.5,-10.75,-12.25,-12.39,0,*66
1484348613.02,63592,5.88,71164.5,-10.75,-12.15,-12.39,0,*66
1484348614.29,63593,5.88,71164.0,-10.75,-12.15,-12.39,0,*67
1484348615.54,63594,5.88,71160.8,-10.75,-12.25,-12.29,0,*62
1484348616.78,63595,5.88,71162.5,-10.75,-12.25,-12.39,0,*62
1484348618.03,63596,5.81,71158.8,-10.75,-12.25,-12.39,0,*61
1484348619.3,63597,5.81,71160.3,-10.75,-12.15,-12.39,0,*63
1484348620.54,63598,5.88,71162.5,-10.75,-12.25,-12.39,0,*6F
1484348621.79,63599,5.81,71158.8,-10.75,-12.25,-12.39,0,*6E
1484348623.04,63600,5.88,71162.5,-10.75,-12.25,-12.39,0,*6D
1484348624.31,63601,5.88,71164.5,-10.75,-12.15,-12.39,0,*6F
1484348625.55,63602,5.88,71164.0,-10.75,-12.29,-12.29,0,*62
1484348626.8,63603,5.88,71162.5,-10.77,-12.29,-12.35,0,*6C
1484348628.04,63604,5.81,71160.0,-10.75,-12.25,-12.39,0,*69
1484348629.29,63605,5.88,71164.3,-10.75,-12.25,-12.39,0,*68
1484348630.53,63606,5.81,71162.0,-10.77,-12.29,-12.35,0,*69
1484348631.8,63607,5.81,71162.3,-10.75,-12.15,-12.29,0,*68
1484348633.05,63608,5.88,71162.3,-10.75,-12.25,-12.29,0,*64
1484348634.32,63609,5.81,71162.3,-10.75,-12.15,-12.29,0,*66
1484348635.59,63610,5.81,71162.5,-10.75,-12.15,-12.29,0,*6E
1484348636.86,63611,5.88,71160.0,-10.75,-12.15,-12.39,0,*6E
1484348638.11,63612,5.88,71160.5,-10.75,-12.29,-12.39,0,*62
1484348639.35,63613,5.88,71162.5,-10.75,-12.25,-12.29,0,*6E
1484348640.62,63614,5.81,71160.5,-10.75,-12.15,-12.29,0,*6A
1484348641.84,63615,5.81,71160.3,-10.77,-12.29,-12.43,0,*6A
1484348643.11,63616,5.81,71162.0,-10.75,-12.15,-12.39,0,*69
1484348644.33,63617,5.81,71158.3,-10.77,-12.21,-12.43,0,*60
1484348645.57,63618,5.81,71162.0,-10.77,-12.21,-12.35,0,*6E
1484348646.82,63619,5.88,71162.5,-10.75,-12.25,-12.29,0,*64
1484348648.07,63620,5.81,71158.5,-10.75,-12.25,-12.39,0,*6F
1484348649.31,63621,5.81,71160.0,-10.75,-12.25,-12.39,0,*6E
1484348650.53,63622,5.88,71162.5,-10.77,-12.29,-12.43,0,*6E
1484348651.74,63623,5.88,71160.3,-10.77,-12.29,-12.43,0,*6F
1484348652.96,63624,5.88,71162.8,-10.77,-12.29,-12.43,0,*68
1484348654.17,63625,5.88,71160.8,-10.77,-12.29,-12.43,0,*69
1484348655.42,63626,5.88,71162.0,-10.75,-12.25,-12.29,0,*68
1484348656.67,63627,5.88,71162.0,-10.75,-12.25,-12.29,0,*69
1484348657.92,63628,5.81,71158.3,-10.75,-12.25,-12.39,0,*67
1484348659.15,63629,5.81,71158.8,-10.77,-12.15,-12.39,0,*67
1484348660.42,63630,5.81,71158.3,-10.75,-12.15,-12.39,0,*6D
1484348661.69,63631,5.88,71160.8,-10.75,-12.15,-12.29,0,*6D
1484348662.94,63632,5.88,71160.0,-10.75,-12.25,-12.39,0,*6C
1484348664.16,63633,5.81,71160.3,-10.77,-12.29,-12.29,0,*62
1484348665.43,63634,5.88,71160.3,-10.75,-12.15,-12.39,0,*69
1484348666.67,63635,5.81,71158.3,-10.77,-12.21,-12.35,0,*61
1484348667.92,63636,5.81,71158.5,-10.77,-12.29,-12.35,0,*6A
1484348669.16,63637,5.81,71158.8,-10.75,-12.29,-12.39,0,*65
1484348670.41,63638,5.81,71156.8,-10.75,-12.25,-12.39,0,*66
1484348671.65,63639,5.81,71158.3,-10.75,-12.25,-12.39,0,*67
1484348672.92,63640,5.88,71160.5,-10.75,-12.15,-12.39,0,*6A
1484348674.19,63641,5.81,71160.8,-10.75,-12.15,-12.29,0,*6A
1484348675.44,63642,5.81,71160.0,-10.75,-12.25,-12.39,0,*6B
1484348676.71,63643,5.88,71160.5,-10.75,-12.15,-12.29,0,*68
1484348677.96,63644,5.81,71158.8,-10.75,-12.25,-12.39,0,*6D
1484348679.17,63645,5.81,71156.5,-10.77,-12.25,-12.29,0,*6F
1484348680.44,63646,5.81,71156.3,-10.75,-12.15,-12.29,0,*6D
1484348681.69,63647,5.81,71158.3,-10.75,-12.25,-12.29,0,*6F
1484348682.94,63648,5.88,71162.0,-10.77,-12.21,-12.35,0,*6B
1484348684.18,63649,5.81,71156.5,-10.77,-12.21,-12.35,0,*6A
1484348685.45,63650,5.81,71156.5,-10.75,-12.15,-12.29,0,*6A
1484348686.7,63651,5.81,71158.3,-10.77,-12.21,-12.35,0,*63
1484348687.97,63652,5.88,71160.5,-10.75,-12.15,-12.29,0,*68
1484348689.22,63653,5.81,71156.8,-10.77,-12.21,-12.35,0,*61
1484348690.47,63654,5.81,71158.8,-10.75,-12.25,-12.29,0,*6D
1484348691.74,63655,5.81,71156.3,-10.75,-12.15,-12.39,0,*6E
1484348693.0,63656,5.81,71158.8,-10.77,-12.15,-12.35,0,*63
1484348694.27,63657,5.81,71158.3,-10.77,-12.15,-12.35,0,*62
1484348695.53,63658,5.88,71162.0,-10.75,-12.03,-12.15,0,*6A
1484348696.77,63659,5.81,71156.8,-10.75,-12.03,-12.25,0,*68
1484348698.01,63660,5.88,71162.3,-10.77,-12.15,-12.29,0,*6B
1484348699.23,63661,5.81,71154.8,-10.77,-12.21,-12.29,0,*6D
1484348700.5,63662,5.88,71160.8,-10.75,-12.11,-12.25,0,*63
1484348701.77,63663,5.81,71158.3,-10.75,-12.11,-12.25,0,*62
1484348703.0,63664,5.88,71158.8,-10.77,-12.15,-12.29,0,*6F
1484348704.27,63665,5.88,71158.8,-10.75,-12.15,-12.25,0,*60
1484348705.49,63666,5.81,71156.5,-10.73,-12.03,-12.29,0,*6E
1484348706.76,63667,5.88,71158.0,-10.75,-12.15,-12.29,0,*6E
1484348708.0,63668,5.81,71158.5,-10.75,-12.03,-12.25,0,*6A
1484348709.27,63669,5.81,71156.3,-10.77,-12.15,-12.35,0,*6F
1484348710.51,63670,5.88,71156.0,-10.77,-12.07,-12.29,0,*69
1484348711.8,63671,5.81,71158.0,-10.75,-12.11,-12.15,0,*62
1484348713.04,63672,5.88,71158.0,-10.77,-12.07,-12.29,0,*6B
1484348714.31,63673,5.81,71156.3,-10.75,-12.11,-12.25,0,*63
1484348715.55,63674,5.81,71154.5,-10.75,-12.03,-12.25,0,*67
1484348716.81,63675,5.88,71156.3,-10.77,-12.15,-12.35,0,*62
1484348718.08,63676,5.81,71156.0,-10.75,-12.11,-12.25,0,*66
1484348719.35,63677,5.81,71158.8,-10.75,-12.11,-12.25,0,*67
1484348720.64,63678,5.88,71156.5,-10.75,-12.11,-12.15,0,*6B
1484348721.88,63679,5.88,71158.8,-10.77,-12.15,-12.21,0,*6B
1484348723.15,63680,5.88,71160.8,-10.75,-12.11,-12.39,0,*62
1484348724.39,63681,5.88,71158.3,-10.77,-12.21,-12.35,0,*6E
1484348725.66,63682,5.88,71158.5,-10.75,-12.15,-12.29,0,*65
1484348726.91,63683,5.81,71154.3,-10.75,-12.25,-12.39,0,*66
1484348728.18,63684,5.88,71158.3,-10.75,-12.15,-12.25,0,*6F
1484348729.45,63685,5.88,71158.5,-10.75,-12.11,-12.25,0,*6A
1484348730.69,63686,5.88,71156.8,-10.77,-12.15,-12.29,0,*63
1484348731.91,63687,5.81,71154.8,-10.77,-12.21,-12.29,0,*65
1484348733.18,63688,5.88,71158.5,-10.75,-12.11,-12.29,0,*6B
1484348734.42,63689,5.81,71154.0,-10.77,-12.15,-12.29,0,*6C
1484348735.69,63690,5.88,71158.0,-10.75,-12.11,-12.29,0,*62
1484348736.93,63691,5.81,71154.3,-10.73,-12.15,-12.25,0,*6D
1484348738.2,63692,5.81,71154.8,-10.75,-12.15,-12.29,0,*64
1484348739.45,63693,5.88,71156.5,-10.77,-12.21,-12.35,0,*6D
1484348740.7,63694,5.81,71156.0,-10.75,-12.25,-12.29,0,*61
1484348741.96,63695,5.81,71152.5,-10.75,-12.15,-12.39,0,*62
1484348743.21,63696,5.88,71158.5,-10.75,-12.25,-12.39,0,*62
1484348744.46,63697,5.81,71156.0,-10.75,-12.25,-12.29,0,*62
1484348745.73,63698,5.88,71158.3,-10.75,-12.15,-12.39,0,*6F
1484348747.0,63699,5.88,71156.0,-10.75,-12.15,-12.39,0,*6E
1484348748.26,63700,5.88,71158.0,-10.75,-12.15,-12.39,0,*6F
1484348749.51,63701,5.88,71158.5,-10.75,-12.25,-12.39,0,*6D
1484348750.76,63702,5.81,71154.5,-10.75,-12.25,-12.29,0,*6F
1484348752.03,63703,5.88,71154.0,-10.75,-12.15,-12.29,0,*6D
1484348753.27,63704,5.81,71154.8,-10.77,-12.21,-12.35,0,*62
1484348754.55,63705,5.88,71158.8,-10.75,-12.15,-12.29,0,*6B
1484348755.79,63706,5.88,71156.3,-10.77,-12.21,-12.35,0,*60
1484348757.01,63707,5.88,71156.3,-10.77,-12.21,-12.43,0,*60
1484348758.26,63708,5.88,71156.5,-10.77,-12.21,-12.35,0,*6E
1484348759.5,63709,5.81,71158.5,-10.73,-12.15,-12.25,0,*6D
1484348760.77,63710,5.81,71156.0,-10.75,-12.11,-12.29,0,*6B
1484348762.04,63711,5.81,71156.3,-10.75,-12.11,-12.25,0,*66
1484348763.29,63712,5.88,71160.5,-10.75,-12.25,-12.29,0,*6E
1484348764.54,63713,5.88,71156.5,-10.75,-12.25,-12.29,0,*6F
1484348765.78,63714,5.88,71156.0,-10.75,-12.25,-12.39,0,*69
1484348767.03,63715,5.88,71158.3,-10.75,-12.25,-12.39,0,*68
1484348768.27,63716,5.88,71158.3,-10.75,-12.25,-12.25,0,*66
1484348769.52,63717,5.88,71156.5,-10.75,-12.25,-12.39,0,*6A
1484348770.76,63718,5.88,71156.5,-10.75,-12.25,-12.25,0,*68
1484348772.01,63719,5.88,71158.0,-10.73,-12.15,-12.29,0,*60
1484348773.26,63720,5.88,71158.0,-10.73,-12.15,-12.25,0,*66
1484348774.52,63721,5.88,71156.3,-10.75,-12.15,-12.39,0,*6C
1484348775.79,63722,5.88,71158.8,-10.75,-12.15,-12.29,0,*6E
1484348777.01,63723,5.81,71152.8,-10.77,-12.21,-12.43,0,*66
1484348778.28,63724,5.81,71152.8,-10.75,-12.15,-12.29,0,*68
1484348779.55,63725,5.81,71156.0,-10.75,-12.15,-12.25,0,*65
1484348780.84,63726,5.81,71154.0,-10.75,-12.11,-12.15,0,*61
1484348782.09,63727,5.88,71156.3,-10.73,-12.11,-12.25,0,*65
1484348783.35,63728,5.88,71158.8,-10.75,-12.11,-12.25,0,*6C
1484348784.62,63729,5.81,71156.5,-10.75,-12.15,-12.25,0,*69
1484348785.87,63730,5.81,71152.8,-10.75,-12.25,-12.25,0,*62
1484348787.14,63731,5.88,71158.0,-10.75,-12.15,-12.39,0,*6D
1484348788.38,63732,5.88,71156.0,-10.75,-12.25,-12.29,0,*6C
1484348789.65,63733,5.88,71156.3,-10.75,-12.15,-12.29,0,*6E
1484348790.92,63734,5.88,71156.8,-10.75,-12.11,-12.39,0,*6C
1484348792.17,63735,5.88,71158.3,-10.75,-12.29,-12.39,0,*66
1484348793.42,63736,5.81,71152.8,-10.75,-12.25,-12.39,0,*69
1484348794.66,63737,5.88,71154.0,-10.75,-12.25,-12.39,0,*68
1484348795.93,63738,5.88,71156.5,-10.75,-12.15,-12.29,0,*65
1484348797.2,63739,5.88,71154.8,-10.75,-12.15,-12.39,0,*65
1484348798.45,63740,5.81,71154.0,-10.75,-12.25,-12.39,0,*68
1484348799.69,63741,5.81,71152.8,-10.75,-12.29,-12.39,0,*65
1484348800.94,63742,5.88,71156.0,-10.75,-12.29,-12.39,0,*66
1484348802.19,63743,5.88,71156.0,-10.75,-12.25,-12.39,0,*6B
1484348803.43,63744,5.81,71154.5,-10.77,-12.29,-12.35,0,*6E
1484348804.68,63745,5.88,71154.5,-10.75,-12.29,-12.39,0,*61
1484348805.92,63746,5.88,71156.0,-10.75,-12.29,-12.39,0,*62
1484348807.17,63747,5.88,71156.0,-10.75,-12.29,-12.39,0,*63
1484348808.41,63748,5.81,71154.5,-10.75,-12.29,-12.39,0,*6C
1484348809.69,63749,5.88,71156.0,-10.75,-12.15,-12.29,0,*63
1484348810.93,63750,5.88,71154.0,-10.75,-12.25,-12.29,0,*68
1484348812.18,63751,5.88,71156.0,-10.77,-12.29,-12.35,0,*6A
1484348813.42,63752,5.81,71152.3,-10.75,-12.25,-12.39,0,*6B
1484348814.67,63753,5.81,71152.3,-10.75,-12.25,-12.39,0,*6A
1484348815.92,63754,5.88,71154.5,-10.75,-12.25,-12.39,0,*6D
1484348817.15,63755,5.88,71152.5,-10.77,-12.35,-12.43,0,*62
1484348818.4,63756,5.81,71152.3,-10.75,-12.29,-12.39,0,*63
1484348819.65,63757,5.88,71158.0,-10.75,-12.29,-12.39,0,*62
1484348820.89,63758,5.88,71156.5,-10.75,-12.39,-12.39,0,*6C
1484348822.13,63759,5.81,71152.3,-10.75,-12.29,-12.39,0,*6C
1484348823.38,63760,5.81,71154.0,-10.75,-12.29,-12.39,0,*66
1484348824.6,63761,5.88,71156.0,-10.77,-12.29,-12.43,0,*68
1484348825.83,63762,5.88,71156.3,-10.77,-12.35,-12.43,0,*66
1484348827.04,63763,5.81,71152.5,-10.77,-12.39,-12.39,0,*66
1484348828.31,63764,5.81,71152.3,-10.77,-12.35,-12.35,0,*61
1484348829.56,63765,5.88,71156.3,-10.75,-12.25,-12.39,0,*6F
1484348830.8,63766,5.88,71154.5,-10.77,-12.29,-12.35,0,*6E
1484348832.04,63767,5.81,71152.8,-10.77,-12.35,-12.43,0,*63
1484348833.25,63768,5.81,71154.0,-10.77,-12.29,-12.43,0,*61
1484348834.47,63769,5.81,71152.5,-10.77,-12.29,-12.43,0,*60
1484348835.71,63770,5.88,71158.8,-10.75,-12.25,-12.39,0,*6B
1484348836.96,63771,5.88,71154.0,-10.75,-12.25,-12.39,0,*6A
1484348838.2,63772,5.88,71156.0,-10.77,-12.29,-12.35,0,*6B
1484348839.45,63773,5.81,71154.8,-10.75,-12.25,-12.29,0,*69
1484348840.7,63774,5.88,71158.0,-10.77,-12.21,-12.35,0,*65
1484348841.91,63775,5.88,71158.5,-10.77,-12.29,-12.43,0,*6D
1484348843.16,63776,5.88,71158.3,-10.75,-12.29,-12.39,0,*61
1484348844.4,63777,5.81,71154.3,-10.75,-12.39,-12.39,0,*61
1484348845.64,63778,5.88,71156.3,-10.75,-12.39,-12.43,0,*63
1484348846.85,63779,5.81,71154.8,-10.77,-12.43,-12.47,0,*69
1484348848.08,63780,5.88,71158.8,-10.77,-12.43,-12.57,0,*6E
1484348849.29,63781,5.88,71156.0,-10.77,-12.43,-12.47,0,*6E
1484348850.5,63782,5.88,71160.0,-10.77,-12.43,-12.47,0,*6D
1484348851.74,63783,5.81,71154.3,-10.77,-12.35,-12.47,0,*6D
1484348852.98,63784,5.81,71154.5,-10.77,-12.35,-12.47,0,*6A
1484348854.19,63785,5.88,71158.0,-10.77,-12.43,-12.47,0,*6A
1484348855.43,63786,5.81,71156.3,-10.75,-12.29,-12.39,0,*6E
1484348856.68,63787,5.81,71154.8,-10.75,-12.29,-12.39,0,*6F
1484348857.92,63788,5.81,71152.5,-10.75,-12.25,-12.39,0,*6C
1484348859.17,63789,5.88,71156.8,-10.75,-12.25,-12.39,0,*6D
1484348860.42,63790,5.81,71154.5,-10.75,-12.25,-12.39,0,*65
1484348861.65,63791,5.88,71156.0,-10.77,-12.35,-12.43,0,*6A
1484348862.9,63792,5.88,71158.5,-10.75,-12.39,-12.39,0,*6A
1484348864.14,63793,5.88,71158.5,-10.75,-12.29,-12.43,0,*67
1484348865.39,63794,5.81,71154.3,-10.75,-12.29,-12.39,0,*6D
1484348866.63,63795,5.88,71158.0,-10.77,-12.29,-12.35,0,*62
1484348867.88,63796,5.88,71158.0,-10.75,-12.25,-12.29,0,*62
1484348869.13,63797,5.88,71156.8,-10.75,-12.25,-12.39,0,*62
1484348870.39,63798,5.81,71152.0,-10.75,-12.15,-12.39,0,*6E
1484348871.61,63799,5.88,71156.3,-10.77,-12.29,-12.43,0,*6F
1484348872.85,63800,5.88,71156.8,-10.77,-12.35,-12.43,0,*6D
1484348874.06,63801,5.81,71152.3,-10.77,-12.43,-12.43,0,*6D
1484348875.29,63802,5.88,71156.3,-10.77,-12.35,-12.43,0,*6F
1484348876.56,63803,5.81,71156.0,-10.77,-12.35,-12.35,0,*6F
1484348877.77,63804,5.88,71158.0,-10.77,-12.43,-12.43,0,*68
1484348879.02,63805,5.88,71156.3,-10.75,-12.29,-12.39,0,*6A
1484348880.26,63806,5.81,71154.0,-10.75,-12.29,-12.39,0,*69
1484348881.5,63807,5.81,71154.3,-10.77,-12.35,-12.43,0,*6A
1484348882.71,63808,5.88,71156.8,-10.77,-12.43,-12.43,0,*64
1484348883.95,63809,5.88,71156.8,-10.77,-12.35,-12.43,0,*64
1484348885.18,63810,5.88,71154.3,-10.77,-12.43,-12.35,0,*6C
1484348886.42,63811,5.81,71152.8,-10.79,-12.43,-12.43,0,*62
1484348887.67,63812,5.88,71156.8,-10.75,-12.29,-12.43,0,*61
1484348888.88,63813,5.88,71158.5,-10.77,-12.29,-12.43,0,*62
1484348890.09,63814,5.88,71156.5,-10.77,-12.43,-12.39,0,*64
1484348891.36,63815,5.88,71154.5,-10.79,-12.35,-12.43,0,*67
1484348892.57,63816,5.88,71156.5,-10.77,-12.43,-12.43,0,*6B
1484348893.78,63817,5.81,71152.8,-10.77,-12.43,-12.47,0,*6E
1484348894.99,63818,5.88,71158.3,-10.77,-12.43,-12.47,0,*61
1484348896.23,63819,5.81,71150.0,-10.77,-12.35,-12.47,0,*61
1484348897.46,63820,5.88,71156.3,-10.77,-12.35,-12.47,0,*6B
1484348898.7,63821,5.81,71152.8,-10.77,-12.35,-12.47,0,*6A